This is the latest recevied weather packets stored in our database for station/object S53BL-10. If no packets are shown the sender has not sent any weather packets the latest 10 day(s).
| Time | Temp. | Humidity | Pressure | Rain* | Wind** | Luminosity | Snow |
|---|---|---|---|---|---|---|---|
| 1777668814 | 11.67° C | 52% | 1023.3 hPa | - | - | - | - |
| 1777667913 | 12.22° C | 52% | 1023.3 hPa | - | - | - | - |
| 1777667012 | 12.22° C | 52% | 1023.1 hPa | - | - | - | - |
| 1777666111 | 12.78° C | 49% | 1023.1 hPa | - | - | - | - |
| 1777665211 | 13.33° C | 48% | 1023 hPa | - | - | - | - |
| 1777664310 | 13.89° C | 46% | 1023 hPa | - | - | - | - |
| 1777663409 | 13.89° C | 45% | 1022.7 hPa | - | - | - | - |
| 1777662508 | 14.44° C | 42% | 1022.3 hPa | - | - | - | - |
| 1777661607 | 15° C | 42% | 1022.2 hPa | - | - | - | - |
| 1777660706 | 15.56° C | 39% | 1021.9 hPa | - | - | - | - |
| 1777659806 | 16.11° C | 37% | 1021.7 hPa | - | - | - | - |
| 1777658905 | 16.11° C | 36% | 1021.5 hPa | - | - | - | - |
| 1777658004 | 16.67° C | 35% | 1021.4 hPa | - | - | - | - |
| 1777657103 | 16.67° C | 33% | 1021.3 hPa | - | - | - | - |
| 1777656203 | 17.78° C | 32% | 1021.1 hPa | - | - | - | - |
| 1777655302 | 17.78° C | 31% | 1020.9 hPa | - | - | - | - |
| 1777654401 | 18.89° C | 28% | 1021 hPa | - | - | - | - |
| 1777653500 | 19.44° C | 27% | 1021 hPa | - | - | - | - |
| 1777652599 | 20.56° C | 25% | 1021.1 hPa | - | - | - | - |
| 1777651699 | 21.67° C | 24% | 1021.1 hPa | - | - | - | - |
| 1777650798 | 22.22° C | 23% | 1021.1 hPa | - | - | - | - |
| 1777649897 | 22.78° C | 23% | 1021.2 hPa | - | - | - | - |
| 1777648996 | 22.78° C | 23% | 1021.3 hPa | - | - | - | - |
| 1777648095 | 22.78° C | 23% | 1021.5 hPa | - | - | - | - |
| 1777647194 | 22.78° C | 22% | 1021.5 hPa | - | - | - | - |
* Rain since midnight (hover to see other rain measurements)
** Current wind speed in m/s (hover to see current wind gust speed)